Time,TemperatureF,DewpointF,PressureIn,WindDirection,WindDirectionDegrees,WindSpeedMPH,WindSpeedGustMPH,Humidity,HourlyPrecipIn,Conditions,Clouds,dailyrainin,SoftwareType,DateUTC
2013-01-27 00:01:00,31.0,26.0,29.82,NNW,341,2.0,-999.0,81,-99.99,,,-99.99,,2013-01-27 07:01:00,
2013-01-27 00:13:00,31.0,26.0,29.82,NNW,341,2.0,-999.0,81,-99.99,,,-99.99,,2013-01-27 07:13:00,
2013-01-27 00:21:00,30.0,25.0,29.82,NNE,15,3.0,-999.0,82,-99.99,,,-99.99,,2013-01-27 07:21:00,
2013-01-27 00:31:00,29.0,24.0,29.82,NNE,20,0.0,-999.0,82,-99.99,,,-99.99,,2013-01-27 07:31:00,
2013-01-27 00:41:00,29.0,24.0,29.82,NNE,20,0.0,-999.0,82,-99.99,,,-99.99,,2013-01-27 07:41:00,
2013-01-27 00:51:00,29.0,25.0,29.81,NNE,31,4.0,-999.0,83,-99.99,,,-99.99,,2013-01-27 07:51:00,
2013-01-27 01:01:00,29.0,25.0,29.81,NNE,31,1.0,-999.0,83,-99.99,,,-99.99,,2013-01-27 08:01:00,
2013-01-27 01:11:00,29.0,25.0,29.81,NNE,31,1.0,-999.0,83,-99.99,,,-99.99,,2013-01-27 08:11:00,
2013-01-27 01:21:00,29.0,24.0,29.81,NNE,31,2.0,-999.0,82,-99.99,,,-99.99,,2013-01-27 08:21:00,
2013-01-27 01:31:00,29.0,24.0,29.80,NNE,31,0.0,-999.0,82,-99.99,,,-99.99,,2013-01-27 08:31:00,
2013-01-27 01:41:00,29.0,24.0,29.80,NNE,31,0.0,-999.0,82,-99.99,,,-99.99,,2013-01-27 08:41:00,
2013-01-27 01:52:00,29.0,24.0,29.80,NNE,31,0.0,-999.0,81,-99.99,,,-99.99,,2013-01-27 08:52:00,
2013-01-27 02:02:00,29.0,24.0,29.79,NNE,30,1.0,-999.0,82,-99.99,,,-99.99,,2013-01-27 09:02:00,
2013-01-27 02:11:00,29.0,24.0,29.79,NNE,30,1.0,-999.0,82,-99.99,,,-99.99,,2013-01-27 09:11:00,
2013-01-27 02:21:00,28.0,24.0,29.80,NNE,30,0.0,-999.0,84,-99.99,,,-99.99,,2013-01-27 09:21:00,
2013-01-27 02:31:00,28.0,24.0,29.80,NNE,30,0.0,-999.0,84,-99.99,,,-99.99,,2013-01-27 09:31:00,
2013-01-27 02:41:00,28.0,24.0,29.80,NNE,30,0.0,-999.0,84,-99.99,,,-99.99,,2013-01-27 09:41:00,
2013-01-27 02:51:00,28.0,24.0,29.79,NNE,30,0.0,-999.0,83,-99.99,,,-99.99,,2013-01-27 09:51:00,
2013-01-27 03:01:00,27.0,23.0,29.79,NNE,30,1.0,-999.0,83,-99.99,,,-99.99,,2013-01-27 10:01:00,
2013-01-27 03:11:00,26.0,22.0,29.79,NNE,30,0.0,-999.0,85,-99.99,,,-99.99,,2013-01-27 10:11:00,
2013-01-27 03:21:00,26.0,22.0,29.79,NNE,30,0.0,-999.0,85,-99.99,,,-99.99,,2013-01-27 10:21:00,
2013-01-27 03:31:00,25.0,21.0,29.79,NNE,30,0.0,-999.0,86,-99.99,,,-99.99,,2013-01-27 10:31:00,
2013-01-27 03:41:00,25.0,21.0,29.79,NNE,30,0.0,-999.0,86,-99.99,,,-99.99,,2013-01-27 10:41:00,
2013-01-27 03:51:00,26.0,23.0,29.79,NNE,30,0.0,-999.0,87,-99.99,,,-99.99,,2013-01-27 10:51:00,
2013-01-27 04:01:00,27.0,24.0,29.79,NNE,30,0.0,-999.0,87,-99.99,,,-99.99,,2013-01-27 11:01:00,
2013-01-27 04:11:00,27.0,24.0,29.79,NNE,30,0.0,-999.0,87,-99.99,,,-99.99,,2013-01-27 11:11:00,
2013-01-27 04:21:00,27.0,24.0,29.79,NNE,30,0.0,-999.0,87,-99.99,,,-99.99,,2013-01-27 11:21:00,
2013-01-27 04:32:00,28.0,25.0,29.79,NNE,30,0.0,-999.0,87,-99.99,,,-99.99,,2013-01-27 11:32:00,
2013-01-27 04:42:00,28.0,25.0,29.79,NNE,30,0.0,-999.0,87,-99.99,,,-99.99,,2013-01-27 11:42:00,
2013-01-27 04:52:00,28.0,25.0,29.79,NNE,29,0.0,-999.0,87,-99.99,,,-99.99,,2013-01-27 11:52:00,
2013-01-27 05:02:00,27.0,23.0,29.78,NW,304,1.0,-999.0,83,-99.99,,,-99.99,,2013-01-27 12:02:00,
2013-01-27 05:11:00,27.0,23.0,29.78,NW,304,1.0,-999.0,83,-99.99,,,-99.99,,2013-01-27 12:11:00,
2013-01-27 05:21:00,27.0,23.0,29.78,WNW,303,0.0,-999.0,84,-99.99,,,-99.99,,2013-01-27 12:21:00,
2013-01-27 05:32:00,27.0,23.0,29.78,NW,304,0.0,-999.0,85,-99.99,,,-99.99,,2013-01-27 12:32:00,
2013-01-27 05:41:00,27.0,23.0,29.78,NW,304,0.0,-999.0,85,-99.99,,,-99.99,,2013-01-27 12:41:00,
2013-01-27 05:52:00,27.0,23.0,29.78,NW,304,0.0,-999.0,85,-99.99,,,-99.99,,2013-01-27 12:52:00,
2013-01-27 06:02:00,25.0,22.0,29.79,NNE,18,2.0,-999.0,88,-99.99,,,-99.99,,2013-01-27 13:02:00,
2013-01-27 06:11:00,25.0,22.0,29.79,NNE,18,2.0,-999.0,88,-99.99,,,-99.99,,2013-01-27 13:11:00,
2013-01-27 06:22:00,26.0,23.0,29.79,NNE,18,0.0,-999.0,89,-99.99,,,-99.99,,2013-01-27 13:22:00,
2013-01-27 06:32:00,26.0,23.0,29.79,NNE,18,0.0,-999.0,87,-99.99,,,-99.99,,2013-01-27 13:32:00,
2013-01-27 06:41:00,26.0,23.0,29.79,NNE,18,0.0,-999.0,87,-99.99,,,-99.99,,2013-01-27 13:41:00,
2013-01-27 06:52:00,25.0,22.0,29.79,NNE,18,0.0,-999.0,89,-99.99,,,-99.99,,2013-01-27 13:52:00,
2013-01-27 07:01:00,26.0,23.0,29.80,NNE,18,0.0,-999.0,89,-99.99,,,-99.99,,2013-01-27 14:01:00,
2013-01-27 07:11:00,26.0,23.0,29.80,NNE,18,0.0,-999.0,89,-99.99,,,-99.99,,2013-01-27 14:11:00,
2013-01-27 07:21:00,26.0,23.0,29.80,NNE,18,0.0,-999.0,88,-99.99,,,-99.99,,2013-01-27 14:21:00,
2013-01-27 07:32:00,25.0,22.0,29.80,NE,40,1.0,-999.0,88,-99.99,,,-99.99,,2013-01-27 14:32:00,
2013-01-27 07:42:00,25.0,22.0,29.80,NE,40,1.0,-999.0,88,-99.99,,,-99.99,,2013-01-27 14:42:00,
2013-01-27 07:52:00,26.0,23.0,29.80,NE,38,3.0,-999.0,89,-99.99,,,-99.99,,2013-01-27 14:52:00,
2013-01-27 08:01:00,24.0,21.0,29.80,NNE,33,3.0,-999.0,88,-99.99,,,-99.99,,2013-01-27 15:01:00,
2013-01-27 08:11:00,24.0,21.0,29.80,NNE,33,3.0,-999.0,88,-99.99,,,-99.99,,2013-01-27 15:11:00,
2013-01-27 08:21:00,25.0,22.0,29.80,NNE,33,0.0,-999.0,89,-99.99,,,-99.99,,2013-01-27 15:21:00,
2013-01-27 08:32:00,26.0,22.0,29.80,NNE,33,0.0,-999.0,86,-99.99,,,-99.99,,2013-01-27 15:32:00,
2013-01-27 08:42:00,26.0,22.0,29.80,NNE,33,0.0,-999.0,86,-99.99,,,-99.99,,2013-01-27 15:42:00,
2013-01-27 08:52:00,27.0,23.0,29.80,NNE,33,0.0,-999.0,86,-99.99,,,-99.99,,2013-01-27 15:52:00,
2013-01-27 09:02:00,28.0,24.0,29.80,NNE,33,0.0,-999.0,84,-99.99,,,-99.99,,2013-01-27 16:02:00,
2013-01-27 09:21:00,30.0,26.0,29.80,NNE,33,0.0,-999.0,84,-99.99,,,-99.99,,2013-01-27 16:21:00,
2013-01-27 09:31:00,32.0,27.0,29.79,NNE,33,0.0,-999.0,80,-99.99,,,-99.99,,2013-01-27 16:31:00,
2013-01-27 09:52:00,30.0,25.0,29.79,NNE,18,2.0,-999.0,80,-99.99,,,-99.99,,2013-01-27 16:52:00,
2013-01-27 10:01:00,32.0,27.0,29.79,North,360,0.0,-999.0,80,-99.99,,,-99.99,,2013-01-27 17:01:00,
2013-01-27 10:21:00,32.0,26.0,29.79,NNE,24,3.0,-999.0,78,-99.99,,,-99.99,,2013-01-27 17:21:00,
2013-01-27 10:31:00,32.0,26.0,29.79,NE,36,5.0,-999.0,79,-99.99,,,-99.99,,2013-01-27 17:31:00,
2013-01-27 10:41:00,32.0,26.0,29.79,NE,36,5.0,-999.0,79,-99.99,,,-99.99,,2013-01-27 17:41:00,
2013-01-27 10:52:00,33.0,27.0,29.78,NE,51,5.0,-999.0,78,-99.99,,,-99.99,,2013-01-27 17:52:00,
2013-01-27 11:01:00,34.0,28.0,29.79,NE,38,5.0,-999.0,78,-99.99,,,-99.99,,2013-01-27 18:01:00,
2013-01-27 11:11:00,34.0,28.0,29.79,NE,38,5.0,-999.0,78,-99.99,,,-99.99,,2013-01-27 18:11:00,
2013-01-27 11:22:00,35.0,28.0,29.78,NE,43,5.0,-999.0,76,-99.99,,,-99.99,,2013-01-27 18:22:00,
2013-01-27 11:31:00,35.0,28.0,29.78,NE,43,5.0,-999.0,76,-99.99,,,-99.99,,2013-01-27 18:31:00,
2013-01-27 11:41:00,35.0,28.0,29.78,NE,43,5.0,-999.0,76,-99.99,,,-99.99,,2013-01-27 18:41:00,
2013-01-27 11:52:00,35.0,28.0,29.78,NE,43,5.0,-999.0,76,-99.99,,,-99.99,,2013-01-27 18:52:00,
2013-01-27 12:01:00,37.0,29.0,29.76,ENE,71,6.0,-999.0,72,-99.99,,,-99.99,,2013-01-27 19:01:00,
2013-01-27 12:11:00,37.0,29.0,29.76,ENE,71,6.0,-999.0,72,-99.99,,,-99.99,,2013-01-27 19:11:00,
2013-01-27 12:21:00,37.0,28.0,29.75,NE,51,4.0,-999.0,71,-99.99,,,-99.99,,2013-01-27 19:21:00,
2013-01-27 12:32:00,37.0,28.0,29.73,ENE,66,7.0,-999.0,71,-99.99,,,-99.99,,2013-01-27 19:32:00,
2013-01-27 12:41:00,37.0,28.0,29.73,ENE,66,7.0,-999.0,71,-99.99,,,-99.99,,2013-01-27 19:41:00,
2013-01-27 12:52:00,37.0,28.0,29.73,NE,51,8.0,-999.0,71,-99.99,,,-99.99,,2013-01-27 19:52:00,
2013-01-27 13:02:00,37.0,28.0,29.71,NE,34,8.0,-999.0,71,-99.99,,,-99.99,,2013-01-27 20:02:00,
2013-01-27 13:11:00,37.0,28.0,29.71,NE,34,8.0,-999.0,71,-99.99,,,-99.99,,2013-01-27 20:11:00,
2013-01-27 13:21:00,37.0,28.0,29.71,ENE,58,7.0,-999.0,71,-99.99,,,-99.99,,2013-01-27 20:21:00,
2013-01-27 13:31:00,39.0,30.0,29.70,NNE,21,4.0,-999.0,69,-99.99,,,-99.99,,2013-01-27 20:31:00,
2013-01-27 13:41:00,39.0,30.0,29.70,NNE,21,4.0,-999.0,69,-99.99,,,-99.99,,2013-01-27 20:41:00,
2013-01-27 13:52:00,39.0,29.0,29.69,NE,51,3.0,-999.0,67,-99.99,,,-99.99,,2013-01-27 20:52:00,
2013-01-27 14:01:00,40.0,30.0,29.68,ENE,63,2.0,-999.0,67,-99.99,,,-99.99,,2013-01-27 21:01:00,
2013-01-27 14:11:00,40.0,30.0,29.68,ENE,63,2.0,-999.0,67,-99.99,,,-99.99,,2013-01-27 21:11:00,
2013-01-27 14:21:00,40.0,30.0,29.68,NE,37,1.0,-999.0,68,-99.99,,,-99.99,,2013-01-27 21:21:00,
2013-01-27 14:32:00,40.0,30.0,29.67,NE,52,1.0,-999.0,67,-99.99,,,-99.99,,2013-01-27 21:32:00,
2013-01-27 14:42:00,40.0,30.0,29.67,NE,52,1.0,-999.0,67,-99.99,,,-99.99,,2013-01-27 21:42:00,
2013-01-27 14:52:00,41.0,31.0,29.65,NE,47,2.0,-999.0,67,-99.99,,,-99.99,,2013-01-27 21:52:00,
2013-01-27 15:01:00,41.0,31.0,29.65,NE,46,5.0,-999.0,66,-99.99,,,-99.99,,2013-01-27 22:01:00,
2013-01-27 15:11:00,41.0,31.0,29.65,NE,46,5.0,-999.0,66,-99.99,,,-99.99,,2013-01-27 22:11:00,
2013-01-27 15:21:00,41.0,30.0,29.64,NE,51,2.0,-999.0,65,-99.99,,,-99.99,,2013-01-27 22:21:00,
2013-01-27 15:31:00,42.0,31.0,29.63,NE,47,3.0,-999.0,65,-99.99,,,-99.99,,2013-01-27 22:31:00,
2013-01-27 15:42:00,42.0,31.0,29.63,NE,47,3.0,-999.0,65,-99.99,,,-99.99,,2013-01-27 22:42:00,
2013-01-27 15:52:00,41.0,31.0,29.63,NNE,26,1.0,-999.0,66,-99.99,,,-99.99,,2013-01-27 22:52:00,
2013-01-27 16:01:00,44.0,29.0,29.63,SSE,154,7.0,-999.0,56,-99.99,,,-99.99,,2013-01-27 23:01:00,
2013-01-27 16:11:00,44.0,29.0,29.63,SSE,154,7.0,-999.0,56,-99.99,,,-99.99,,2013-01-27 23:11:00,
2013-01-27 16:21:00,45.0,30.0,29.62,SE,136,2.0,-999.0,56,-99.99,,,-99.99,,2013-01-27 23:21:00,
2013-01-27 16:31:00,45.0,29.0,29.62,South,175,7.0,-999.0,54,-99.99,,,-99.99,,2013-01-27 23:31:00,
2013-01-27 16:41:00,45.0,29.0,29.62,South,175,7.0,-999.0,54,-99.99,,,-99.99,,2013-01-27 23:41:00,
2013-01-27 16:53:00,44.0,29.0,29.61,SE,146,10.0,-999.0,56,-99.99,,,-99.99,,2013-01-27 23:53:00,
2013-01-27 17:01:00,44.0,30.0,29.61,SSE,158,8.0,-999.0,57,-99.99,,,-99.99,,2013-01-28 00:01:00,
2013-01-27 17:11:00,44.0,30.0,29.61,SSE,158,8.0,-999.0,57,-99.99,,,-99.99,,2013-01-28 00:11:00,
2013-01-27 17:21:00,43.0,29.0,29.61,SSE,162,9.0,-999.0,58,-99.99,,,-99.99,,2013-01-28 00:21:00,
2013-01-27 17:32:00,42.0,28.0,29.61,SSE,165,10.0,-999.0,58,-99.99,,,-99.99,,2013-01-28 00:32:00,
2013-01-27 17:41:00,42.0,28.0,29.61,SSE,165,10.0,-999.0,58,-99.99,,,-99.99,,2013-01-28 00:41:00,
2013-01-27 17:52:00,41.0,29.0,29.61,SE,140,8.0,-999.0,61,-99.99,,,-99.99,,2013-01-28 00:52:00,
2013-01-27 18:01:00,40.0,29.0,29.62,South,173,8.0,-999.0,64,-99.99,,,-99.99,,2013-01-28 01:01:00,
2013-01-27 18:11:00,40.0,29.0,29.62,South,173,8.0,-999.0,64,-99.99,,,-99.99,,2013-01-28 01:11:00,
2013-01-27 18:21:00,38.0,28.0,29.62,NNW,338,0.0,-999.0,67,-99.99,,,-99.99,,2013-01-28 01:21:00,
2013-01-27 18:32:00,34.0,27.0,29.63,North,360,4.0,-999.0,76,-99.99,,,-99.99,,2013-01-28 01:32:00,
2013-01-27 18:42:00,34.0,27.0,29.63,North,360,4.0,-999.0,76,-99.99,,,-99.99,,2013-01-28 01:42:00,
2013-01-27 18:52:00,32.0,27.0,29.63,NNE,26,9.0,-999.0,82,-99.99,,,-99.99,,2013-01-28 01:52:00,
2013-01-27 19:01:00,31.0,27.0,29.64,NE,37,9.0,-999.0,84,-99.99,,,-99.99,,2013-01-28 02:01:00,
2013-01-27 19:11:00,31.0,27.0,29.64,NE,37,9.0,-999.0,84,-99.99,,,-99.99,,2013-01-28 02:11:00,
2013-01-27 19:21:00,31.0,27.0,29.65,NE,34,10.0,-999.0,84,-99.99,,,-99.99,,2013-01-28 02:21:00,
2013-01-27 19:32:00,30.0,26.0,29.65,NNE,22,10.0,-999.0,84,-99.99,,,-99.99,,2013-01-28 02:32:00,
2013-01-27 19:41:00,30.0,26.0,29.65,NNE,22,10.0,-999.0,84,-99.99,,,-99.99,,2013-01-28 02:41:00,
2013-01-27 19:52:00,30.0,26.0,29.65,NNE,22,10.0,-999.0,84,-99.99,,,-99.99,,2013-01-28 02:52:00,
2013-01-27 20:01:00,30.0,26.0,29.66,NE,53,14.0,-999.0,84,-99.99,,,-99.99,,2013-01-28 03:01:00,
2013-01-27 20:11:00,30.0,26.0,29.66,NE,53,14.0,-999.0,84,-99.99,,,-99.99,,2013-01-28 03:11:00,
2013-01-27 20:21:00,29.0,25.0,29.67,NE,45,14.0,-999.0,83,-99.99,,,-99.99,,2013-01-28 03:21:00,
2013-01-27 20:32:00,28.0,23.0,29.68,North,11,17.0,-999.0,80,-99.99,,,-99.99,,2013-01-28 03:32:00,
2013-01-27 20:41:00,28.0,23.0,29.68,North,11,17.0,-999.0,80,-99.99,,,-99.99,,2013-01-28 03:41:00,
2013-01-27 20:52:00,28.0,23.0,29.70,NNE,26,13.0,-999.0,80,-99.99,,,-99.99,,2013-01-28 03:52:00,
2013-01-27 21:01:00,28.0,23.0,29.69,NNE,17,15.0,-999.0,80,-99.99,,,-99.99,,2013-01-28 04:01:00,
2013-01-27 21:11:00,28.0,23.0,29.69,NNE,17,15.0,-999.0,80,-99.99,,,-99.99,,2013-01-28 04:11:00,
2013-01-27 21:21:00,27.0,21.0,29.70,NNE,30,20.0,-999.0,78,-99.99,,,-99.99,,2013-01-28 04:21:00,
2013-01-27 21:31:00,27.0,21.0,29.71,NNE,23,17.0,-999.0,78,-99.99,,,-99.99,,2013-01-28 04:31:00,
2013-01-27 21:41:00,27.0,21.0,29.71,NNE,23,17.0,-999.0,78,-99.99,,,-99.99,,2013-01-28 04:41:00,
2013-01-27 21:52:00,27.0,21.0,29.72,NNE,30,17.0,-999.0,79,-99.99,,,-99.99,,2013-01-28 04:52:00,
2013-01-27 22:03:00,26.0,21.0,29.72,North,355,14.0,-999.0,80,-99.99,,,-99.99,,2013-01-28 05:03:00,
2013-01-27 22:11:00,26.0,21.0,29.72,North,355,14.0,-999.0,80,-99.99,,,-99.99,,2013-01-28 05:11:00,
2013-01-27 22:21:00,26.0,20.0,29.93,North,5,12.0,-999.0,79,-99.99,,,-99.99,,2013-01-28 05:21:00,
2013-01-27 22:31:00,27.0,21.0,29.93,North,360,12.0,-999.0,79,-99.99,,,-99.99,,2013-01-28 05:31:00,
2013-01-27 22:41:00,27.0,21.0,29.93,North,360,12.0,-999.0,79,-99.99,,,-99.99,,2013-01-28 05:41:00,
2013-01-27 22:52:00,27.0,21.0,29.91,North,360,12.0,-999.0,78,-99.99,,,-99.99,,2013-01-28 05:52:00,
2013-01-27 23:01:00,27.0,21.0,29.93,North,355,14.0,-999.0,78,-99.99,,,-99.99,,2013-01-28 06:01:00,
2013-01-27 23:11:00,27.0,21.0,29.93,North,355,14.0,-999.0,78,-99.99,,,-99.99,,2013-01-28 06:11:00,
2013-01-27 23:21:00,27.0,21.0,29.92,NNE,24,13.0,-999.0,77,-99.99,,,-99.99,,2013-01-28 06:21:00,
2013-01-27 23:31:00,27.0,21.0,29.93,North,360,13.0,-999.0,77,-99.99,,,-99.99,,2013-01-28 06:31:00,
2013-01-27 23:41:00,27.0,21.0,29.93,North,360,13.0,-999.0,77,-99.99,,,-99.99,,2013-01-28 06:41:00,
2013-01-27 23:52:00,27.0,20.0,29.94,North,360,12.0,-999.0,76,-99.99,,,-99.99,,2013-01-28 06:52:00,